Weather History for Toledo Metcalf, OH

Change the Weather History Date:

Monday, July 15, 2013

  Actual Average (KTOL) Record (KTOL)
Temperature  
Mean Temperature 82 °F 74 °F  
Max Temperature 91 °F 85 °F 101 °F (1977)
Min Temperature 72 °F 63 °F 48 °F (1987)
Degree Days  
Heating Degree Days 0 0  
Month to date heating degree days 0  
Since 1 June heating degree days 35  
Since 1 July heating degree days 0  
Cooling Degree Days 16 9  
Month to date cooling degree days 133  
Year to date cooling degree days 356  
Since 1 June cooling degree days 303  
Growing Degree Days 32 (Base 50)    
Moisture  
Dew Point 72 °F    
Average Humidity 71    
Maximum Humidity 91    
Minimum Humidity 52    
Precipitation  
Precipitation 0.00 in 0.11 in 0.97 in (1958)
Month to date precipitation 1.51  
Year to date precipitation 18.45  
Snow  
Snow 0.00 in 0.00 in - ()
Month to date snowfall 0.0  
Since 1 June snowfall 0.0  
Since 1 July snowfall 0.0  
Snow Depth -    
Sea Level Pressure  
Sea Level Pressure 30.27 in    
Wind  
Wind Speed 3 mph (SW)    
Max Wind Speed 9 mph    
Max Gust Speed -    
Visibility 10 miles    
Events      
T = Trace of Precipitation, MM = Missing Value Source: NWS Daily Summary

Daily Weather History Graph

Daily Weather History Graph

Search for Another Location

Airport:

Trip Planner

Search our weather history database for the weather conditions in past years. The results will help you decide how hot, cold, wet, or windy it might be!

Date:

Astronomy

Jul. 15, 2013 Rise Set
Actual Time 6:13 AM EDT 9:06 PM EDT
Civil Twilight 5:40 AM EDT 9:39 PM EDT
Nautical Twilight 4:58 AM EDT 10:20 PM EDT
Astronomical Twilight 4:10 AM EDT 11:08 PM EDT
Moon 1:38 PM EDT (7/15) 12:12 AM EDT (7/15)
Length of Visible Light 15h 58m
Length of Day
14h 53m
Waxing Crescent, 45% of the Moon is Illuminated
Jul 15
Waxing Crescent
Jul 15
First Quarter
Jul 22
Full
Jul 29
Last Quarter
Aug 6
New

Hourly Weather History & Observations

Time (EDT) Temp. Heat Index Dew Point Humidity Pressure Visibility Wind Dir Wind Speed Gust Speed Precip Events Conditions
12:53 AM 73.9 °F - 70.0 °F 87% 30.26 in 10.0 mi Calm Calm - N/A   Partly Cloudy
1:53 AM 73.9 °F - 70.0 °F 87% 30.25 in 10.0 mi East 3.5 mph - N/A   Partly Cloudy
2:53 AM 73.0 °F - 70.0 °F 90% 30.25 in 10.0 mi Calm Calm - N/A   Partly Cloudy
3:53 AM 73.9 °F - 70.0 °F 87% 30.25 in 10.0 mi Calm Calm - N/A   Clear
4:53 AM 72.0 °F - 69.1 °F 91% 30.26 in 10.0 mi South 3.5 mph - N/A   Partly Cloudy
5:53 AM 73.0 °F - 70.0 °F 90% 30.26 in 9.0 mi Calm Calm - N/A   Clear
6:53 AM 73.9 °F - 70.0 °F 87% 30.28 in 9.0 mi Calm Calm - N/A   Clear
7:53 AM 77.0 °F - 72.0 °F 84% 30.30 in 10.0 mi South 3.5 mph - N/A   Clear
8:53 AM 81.0 °F 85.8 °F 73.0 °F 77% 30.30 in 10.0 mi SSW 5.8 mph - N/A   Clear
9:53 AM 84.0 °F 89.6 °F 72.0 °F 67% 30.30 in 10.0 mi WSW 5.8 mph - N/A   Clear
10:53 AM 86.0 °F 93.0 °F 73.0 °F 65% 30.30 in 10.0 mi WSW 3.5 mph - N/A   Clear
11:53 AM 86.0 °F 92.2 °F 72.0 °F 63% 30.30 in 10.0 mi WSW 4.6 mph - N/A   Mostly Cloudy
12:53 PM 88.0 °F 95.6 °F 73.0 °F 61% 30.29 in 10.0 mi Calm Calm - N/A   Partly Cloudy
1:53 PM 90.0 °F 99.0 °F 73.9 °F 59% 30.28 in 10.0 mi West 3.5 mph - N/A   Mostly Cloudy
2:53 PM 89.1 °F 95.0 °F 71.1 °F 55% 30.27 in 10.0 mi SSW 6.9 mph - N/A   Mostly Cloudy
3:53 PM 91.9 °F 99.5 °F 72.0 °F 52% 30.26 in 10.0 mi WSW 9.2 mph - N/A   Scattered Clouds
4:53 PM 88.0 °F 96.5 °F 73.9 °F 63% 30.26 in 10.0 mi NNE 8.1 mph - N/A   Overcast
5:53 PM 89.1 °F 99.1 °F 75.0 °F 63% 30.24 in 10.0 mi Calm Calm - N/A   Scattered Clouds
6:53 PM 90.0 °F 96.4 °F 71.1 °F 54% 30.24 in 10.0 mi WSW 8.1 mph - N/A   Partly Cloudy
7:53 PM 89.1 °F 95.0 °F 71.1 °F 55% 30.23 in 10.0 mi WSW 5.8 mph - N/A   Clear
8:53 PM 87.1 °F 93.6 °F 72.0 °F 61% 30.23 in 10.0 mi SW 4.6 mph - N/A   Clear
9:53 PM 84.0 °F 89.6 °F 72.0 °F 67% 30.25 in 10.0 mi WSW 3.5 mph - N/A   Clear
10:53 PM 82.0 °F 86.7 °F 72.0 °F 71% 30.27 in 10.0 mi WSW 3.5 mph - N/A   Scattered Clouds
11:53 PM 82.0 °F 86.7 °F 72.0 °F 71% 30.27 in 10.0 mi Calm Calm - N/A   Clear